User: anonymous   Login
Location: Castiglione Fibocchi
(43.5333°N, 11.7667°E)
Time: 02:35:51
(UTC+00:00)
Language:

IDEFIX/ARIANE 42P - Orbit

View from above orbital plane
View from above orbital plane
View from above satellite
View from above satellite

Ground track
Ground track

The orbit data is extracted from the following two-line orbital elements,

1 27422U 02021B   20302.81480271  .00000003  00000-0  17387-4 0  9993
2 27422  98.3688 258.4644 0011783 192.0083 168.0820 14.29296899962323
Epoch (UTC): 28 October 2020 19:33:18
Eccentricity: 0.0011783
inclination: 98.3688°
perigee height: 785 km
apogee height: 802 km
right ascension of ascending node: 258.4644°
argument of perigee: 192.0083°
revolutions per day: 14.29296899
mean anomaly at epoch: 168.0820°
orbit number at epoch: 96232

The dashed part of the orbit path shows where the satellite is in the earth's shadow,  

DLR